Location: Dumpton Point
(51.3500°N, 1.4433°E)
Time: 05:35:35
(UTC+00:00)

Cosmos 1408 - Pass Details

Date: 09 April 2020
Orbit: 470 x 494 km, 82.6° (Epoch: 01 June)

Event Time Altitude Azimuth Distance (km) Brightness Sun altitude
Rises 20:40:33 0° 353° (N) 2,565 6.9 -17.4°
Reaches altitude 10° 20:42:42 10° 359° (N) 1,683 5.8 -17.7°
Maximum altitude 20:46:18 49° 76° (ENE) 638 2.9 -18.1°
Enters shadow 20:46:44 46° 102° (ESE) 667 2.8 -18.1°
